,,Stat5,,Stat1,,Stat2,,Stat3,,Stat4,,Wind1,,Wind1,
time,status,PA1M_AVG,status,PR1M_SUM,status,RH1M_AVG,status,SR1M_AVG,status,TA1M_AVG,status,W1dAve1m,status,W1sAve1m,
2002-07-16, 00:00:01,VALID,918.421,VALID,0,VALID,93.4871,VALID,-0.0509425,VALID,19.0233,VALID,193,VALID,0.0902344,
2002-07-16, 00:01:01,VALID,918.431,VALID,0,VALID,93.5583,VALID,-0.0509425,VALID,18.9654,VALID,181,VALID,0.337695,
2002-07-16, 00:02:00,VALID,918.426,VALID,0,VALID,93.6982,VALID,-0.0339617,VALID,18.9004,VALID,160,VALID,0.552684,
2002-07-16, 00:03:01,VALID,918.433,VALID,0,VALID,93.7211,VALID,-0.0509425,VALID,18.8425,VALID,153,VALID,0.765625,
2002-07-16, 00:04:01,VALID,918.433,VALID,0,VALID,93.6282,VALID,-0.0169808,VALID,18.7716,VALID,146,VALID,1.0611,
2002-07-16, 00:05:01,VALID,918.427,VALID,0,VALID,94.3289,VALID,-0.0169808,VALID,18.7034,VALID,147,VALID,0.992821,
2002-07-16, 00:06:01,VALID,918.427,VALID,0,VALID,94.4268,VALID,-0.0339617,VALID,18.6579,VALID,140,VALID,0.836349,
2002-07-16, 00:07:01,VALID,918.437,VALID,0,VALID,94.6735,VALID,-0.0169808,VALID,18.6231,VALID,144,VALID,1.08474,
2002-07-16, 00:08:01,VALID,918.421,VALID,0,VALID,95.1694,VALID,-0.0509425,VALID,18.6002,VALID,141,VALID,1.25308,
2002-07-16, 00:09:01,VALID,918.409,VALID,0,VALID,95.6081,VALID,-0.0339617,VALID,18.5905,VALID,145,VALID,1.16186,
2002-07-16, 00:10:01,VALID,918.393,VALID,0,VALID,95.8243,VALID,0,VALID,18.5871,VALID,143,VALID,1.15372,
2002-07-16, 00:11:01,VALID,918.372,VALID,0,VALID,96.0163,VALID,-0.0679233,VALID,18.6134,VALID,145,VALID,1.27063,
2002-07-16, 00:12:01,VALID,918.354,VALID,0,VALID,96.1536,VALID,-0.0339617,VALID,18.6263,VALID,143,VALID,1.43979,
2002-07-16, 00:13:01,VALID,918.347,VALID,0,VALID,96.2795,VALID,-0.0169808,VALID,18.6681,VALID,141,VALID,1.05046,
2002-07-16, 00:14:01,VALID,918.334,VALID,0,VALID,96.2427,VALID,0,VALID,18.6904,VALID,136,VALID,0.807031,
2002-07-16, 00:15:01,VALID,918.32,VALID,0,VALID,96.3126,VALID,-0.0169808,VALID,18.7327,VALID,123,VALID,0.516242,
2002-07-16, 00:16:01,VALID,918.301,VALID,0,VALID,96.1257,VALID,-0.0339617,VALID,18.7615,VALID,80,VALID,0.400152,
2002-07-16, 00:17:01,VALID,918.284,VALID,0,VALID,95.0283,VALID,0,VALID,18.7262,VALID,53,VALID,0.573269,
2002-07-16, 00:18:01,VALID,918.239,VALID,0,VALID,93.0993,VALID,-0.0339617,VALID,18.5068,VALID,23,VALID,0.955329,
2002-07-16, 00:19:01,VALID,918.187,VALID,0,VALID,94.2679,VALID,0,VALID,18.3709,VALID,30,VALID,0.807927,
2002-07-16, 00:20:01,VALID,918.14,VALID,0,VALID,94.3047,VALID,-0.0339617,VALID,18.2934,VALID,35,VALID,0.892681,
2002-07-16, 00:21:01,VALID,918.141,VALID,0,VALID,94.7256,VALID,-0.0169808,VALID,18.1707,VALID,30,VALID,0.977965,
2002-07-16, 00:22:01,VALID,918.133,VALID,0,VALID,95.2267,VALID,-0.0339617,VALID,18.1258,VALID,27,VALID,0.816306,
2002-07-16, 00:23:01,VALID,918.163,VALID,0,VALID,95.5458,VALID,-0.0339617,VALID,18.0644,VALID,42,VALID,0.604167,
2002-07-16, 00:24:01,VALID,918.165,VALID,0,VALID,96.188,VALID,-0.0169808,VALID,18.0644,VALID,77,VALID,0.57168,
2002-07-16, 00:25:01,VALID,918.149,VALID,0,VALID,96.5784,VALID,0,VALID,18.0969,VALID,83,VALID,0.608594,
2002-07-16, 00:26:00,VALID,918.124,VALID,0,VALID,96.5974,VALID,0,VALID,18.0967,VALID,90,VALID,0.800876,
2002-07-16, 00:27:00,VALID,918.132,VALID,0,VALID,96.736,VALID,-0.0169808,VALID,18.1059,VALID,98,VALID,0.81942,
2002-07-16, 00:28:00,VALID,918.142,VALID,0,VALID,96.5135,VALID,-0.0169808,VALID,18.0902,VALID,79,VALID,0.625422,
2002-07-16, 00:29:00,VALID,918.142,VALID,0,VALID,96.1575,VALID,-0.0169808,VALID,18.0284,VALID,75,VALID,0.782095,
2002-07-16, 00:30:00,VALID,918.141,VALID,0,VALID,96.5428,VALID,-0.0169808,VALID,18.0063,VALID,87,VALID,0.935177,
2002-07-16, 00:31:00,VALID,918.168,VALID,0,VALID,96.7678,VALID,-0.0339617,VALID,18.0321,VALID,104,VALID,0.551258,
2002-07-16, 00:32:00,VALID,918.198,VALID,0,VALID,96.4423,VALID,0,VALID,18.0028,VALID,125,VALID,0.701275,
2002-07-16, 00:33:00,VALID,918.216,VALID,0,VALID,96.1893,VALID,0,VALID,17.9449,VALID,140,VALID,0.962941,
2002-07-16, 00:34:00,VALID,918.23,VALID,0,VALID,96.4169,VALID,0,VALID,17.8997,VALID,143,VALID,0.845052,
2002-07-16, 00:35:00,VALID,918.241,VALID,0,VALID,97.3642,VALID,0,VALID,17.9509,VALID,133,VALID,1.0875,
2002-07-16, 00:36:00,VALID,918.257,VALID,0,VALID,97.6948,VALID,0,VALID,18.0543,VALID,120,VALID,0.647786,
2002-07-16, 00:37:00,VALID,918.269,VALID,0,VALID,97.8576,VALID,0,VALID,18.1583,VALID,108,VALID,1.02865,
2002-07-16, 00:38:00,VALID,918.286,VALID,0,VALID,97.8665,VALID,-0.0339617,VALID,18.2522,VALID,96,VALID,1.18809,
2002-07-16, 00:39:00,VALID,918.302,VALID,0,VALID,97.9949,VALID,-0.0339617,VALID,18.3518,VALID,95,VALID,1.12891,
2002-07-16, 00:40:00,VALID,918.301,VALID,0,VALID,97.7559,VALID,-0.0509425,VALID,18.4362,VALID,93,VALID,1.16506,
2002-07-16, 00:41:00,VALID,918.307,VALID,0,VALID,97.5524,VALID,-0.0509425,VALID,18.5011,VALID,102,VALID,0.67103,
2002-07-16, 00:42:00,VALID,918.338,VALID,0,VALID,97.143,VALID,-0.0169808,VALID,18.52,VALID,114,VALID,0.635352,
2002-07-16, 00:43:00,VALID,918.365,VALID,0,VALID,96.4855,VALID,-0.0169808,VALID,18.4713,VALID,139,VALID,0.638672,
2002-07-16, 00:44:00,VALID,918.393,VALID,0,VALID,96.4881,VALID,0,VALID,18.4162,VALID,139,VALID,0.876267,
2002-07-16, 00:45:00,VALID,918.411,VALID,0,VALID,96.5695,VALID,0,VALID,18.4067,VALID,131,VALID,0.793324,
2002-07-16, 00:46:00,VALID,918.41,VALID,0,VALID,96.5186,VALID,-0.0339617,VALID,18.3903,VALID,131,VALID,0.901242,
2002-07-16, 00:47:00,VALID,918.389,VALID,0,VALID,96.675,VALID,-0.0169808,VALID,18.3906,VALID,123,VALID,0.931891,
2002-07-16, 00:48:00,VALID,918.378,VALID,0,VALID,97.0107,VALID,-0.0169808,VALID,18.4395,VALID,116,VALID,0.674805,
2002-07-16, 00:49:00,VALID,918.4,VALID,0,VALID,96.731,VALID,0,VALID,18.4293,VALID,105,VALID,0.504808,
2002-07-16, 00:50:00,VALID,918.394,VALID,0,VALID,95.9718,VALID,0,VALID,18.3354,VALID,86,VALID,0.53487,
2002-07-16, 00:51:00,VALID,918.379,VALID,0,VALID,94.9456,VALID,-0.0339617,VALID,18.1354,VALID,56,VALID,0.59734,
2002-07-16, 00:52:00,VALID,918.381,VALID,0,VALID,95.6844,VALID,-0.0339617,VALID,18.0649,VALID,44,VALID,0.699319,
2002-07-16, 00:53:00,VALID,918.387,VALID,0,VALID,96.2605,VALID,0,VALID,18.0679,VALID,44,VALID,0.344922,
2002-07-16, 00:54:00,VALID,918.375,VALID,0,VALID,96.5517,VALID,-0.0679233,VALID,18.0649,VALID,44,VALID,0.381098,
2002-07-16, 00:55:00,VALID,918.375,VALID,0,VALID,96.661,VALID,-0.0339617,VALID,18.0455,VALID,44,VALID,0.519626,
2002-07-16, 00:56:00,VALID,918.372,VALID,0,VALID,96.8963,VALID,-0.0169808,VALID,18.0326,VALID,38,VALID,0.460304,
2002-07-16, 00:57:00,VALID,918.381,VALID,0,VALID,96.998,VALID,-0.0679233,VALID,18.0132,VALID,29,VALID,0.468564,
2002-07-16, 00:58:00,VALID,918.388,VALID,0,VALID,97.3922,VALID,-0.0509425,VALID,18.042,VALID,24,VALID,0.476376,
2002-07-16, 00:59:00,VALID,918.394,VALID,0,VALID,97.4952,VALID,-0.0509425,VALID,18.0681,VALID,24,VALID,0.336993,
2002-07-16, 01:00:00,VALID,918.406,VALID,0,VALID,97.3375,VALID,-0.0339617,VALID,18.0261,VALID,24,VALID,0.5,
2002-07-16, 01:01:00,VALID,918.41,VALID,0,VALID,97.2015,VALID,-0.0169808,VALID,17.9901,VALID,13,VALID,0.539509,
2002-07-16, 01:02:00,VALID,918.42,VALID,0,VALID,97.6007,VALID,-0.0339617,VALID,18.0323,VALID,349,VALID,0.256944,
2002-07-16, 01:03:00,VALID,918.421,VALID,0,VALID,98.192,VALID,-0.0169808,VALID,18.1836,VALID,263,VALID,0.309821,
2002-07-16, 01:04:00,VALID,918.42,VALID,0,VALID,98.4184,VALID,-0.0679233,VALID,18.3101,VALID,260,VALID,0.115748,
2002-07-16, 01:05:00,VALID,918.443,VALID,0,VALID,98.3751,VALID,-0.0169808,VALID,18.4104,VALID,266,VALID,0.0439967,
2002-07-16, 01:06:00,VALID,918.45,VALID,0,VALID,97.8449,VALID,-0.0169808,VALID,18.355,VALID,322,VALID,0.152755,
2002-07-16, 01:07:00,VALID,918.46,VALID,0,VALID,97.8945,VALID,-0.0169808,VALID,18.391,VALID,286,VALID,0.401521,
2002-07-16, 01:08:00,VALID,918.448,VALID,0,VALID,97.9606,VALID,-0.0339617,VALID,18.4745,VALID,282,VALID,0.0766859,
2002-07-16, 01:09:00,VALID,918.435,VALID,0,VALID,97.5829,VALID,-0.0339617,VALID,18.4976,VALID,38,VALID,0.494531,
2002-07-16, 01:10:00,VALID,918.398,VALID,0,VALID,97.5804,VALID,-0.0339617,VALID,18.5036,VALID,68,VALID,0.636489,
2002-07-16, 01:11:00,VALID,918.37,VALID,0,VALID,97.644,VALID,0,VALID,18.5585,VALID,68,VALID,0.566106,
2002-07-16, 01:12:00,VALID,918.357,VALID,0,VALID,97.5168,VALID,-0.0169808,VALID,18.6196,VALID,69,VALID,0.629808,
2002-07-16, 01:13:00,VALID,918.336,VALID,0,VALID,97.3146,VALID,-0.0339617,VALID,18.6683,VALID,93,VALID,0.71176,
2002-07-16, 01:14:00,VALID,918.323,VALID,0,VALID,97.0654,VALID,-0.0339617,VALID,18.7038,VALID,108,VALID,0.61879,
2002-07-16, 01:15:00,VALID,918.296,VALID,0,VALID,96.8899,VALID,-0.0339617,VALID,18.7165,VALID,115,VALID,0.440584,
2002-07-16, 01:16:00,VALID,918.308,VALID,0,VALID,96.7004,VALID,-0.0169808,VALID,18.7396,VALID,113,VALID,0.15024,
2002-07-16, 01:17:00,VALID,918.321,VALID,0,VALID,96.2935,VALID,-0.0339617,VALID,18.7008,VALID,111,VALID,0.00914634,
2002-07-16, 01:18:00,VALID,918.322,VALID,0,VALID,96.0761,VALID,-0.0339617,VALID,18.6817,VALID,111,VALID,0.021234,
2002-07-16, 01:19:00,VALID,918.307,VALID,0,VALID,95.3653,VALID,0,VALID,18.5843,VALID,68,VALID,0.302849,
2002-07-16, 01:20:00,VALID,918.272,VALID,0,VALID,95.4009,VALID,-0.0339617,VALID,18.523,VALID,65,VALID,0.358398,
2002-07-16, 01:21:00,VALID,918.242,VALID,0,VALID,95.715,VALID,-0.0169808,VALID,18.5073,VALID,53,VALID,0.602407,
2002-07-16, 01:22:00,VALID,918.219,VALID,0,VALID,96.4461,VALID,-0.0169808,VALID,18.5712,VALID,23,VALID,0.529492,
2002-07-16, 01:23:00,VALID,918.2,VALID,0,VALID,96.661,VALID,-0.0169808,VALID,18.6579,VALID,8,VALID,0.662418,
2002-07-16, 01:24:00,VALID,918.197,VALID,0,VALID,96.3914,VALID,0,VALID,18.726,VALID,311,VALID,0.590511,
2002-07-16, 01:25:00,VALID,918.191,VALID,0,VALID,96.1956,VALID,-0.0169808,VALID,18.7749,VALID,279,VALID,0.505068,
2002-07-16, 01:26:00,VALID,918.172,VALID,0,VALID,96.2147,VALID,-0.0339617,VALID,18.8492,VALID,246,VALID,0.613782,
2002-07-16, 01:27:00,VALID,918.141,VALID,0,VALID,95.9998,VALID,-0.0169808,VALID,18.9071,VALID,240,VALID,0.172637,
2002-07-16, 01:28:00,VALID,918.1,VALID,0,VALID,95.5802,VALID,-0.0169808,VALID,18.9331,VALID,240,VALID,0.0117188,
2002-07-16, 01:29:00,VALID,918.081,VALID,0,VALID,95.1923,VALID,-0.0339617,VALID,18.9398,VALID,346,VALID,0.178886,
2002-07-16, 01:30:00,VALID,918.067,VALID,0,VALID,94.4751,VALID,-0.0339617,VALID,18.8589,VALID,353,VALID,0.277644,
2002-07-16, 01:31:00,VALID,918.036,VALID,0,VALID,94.3124,VALID,-0.0509425,VALID,18.7843,VALID,6,VALID,0.497196,
2002-07-16, 01:32:00,VALID,918.009,VALID,0,VALID,94.6849,VALID,-0.0679233,VALID,18.7426,VALID,8,VALID,0.480469,
2002-07-16, 01:33:00,VALID,917.98,VALID,0,VALID,95.1465,VALID,-0.0679233,VALID,18.7458,VALID,354,VALID,0.371094,
2002-07-16, 01:34:00,VALID,917.989,VALID,0,VALID,95.3207,VALID,0.0339617,VALID,18.7767,VALID,306,VALID,0.0308689,
2002-07-16, 01:35:00,VALID,917.989,VALID,0,VALID,95.3398,VALID,0.0679233,VALID,18.7861,VALID,306,VALID,0.00870536,
2002-07-16, 01:36:00,VALID,917.998,VALID,0,VALID,95.1872,VALID,0.0509425,VALID,18.7797,VALID,305,VALID,0,
2002-07-16, 01:37:00,VALID,917.991,VALID,0,VALID,94.7028,VALID,0.0509425,VALID,18.7449,VALID,306,VALID,0.0734797,
2002-07-16, 01:38:00,VALID,917.971,VALID,0,VALID,94.47,VALID,0.0509425,VALID,18.6632,VALID,28,VALID,0.473606,
2002-07-16, 01:39:00,VALID,917.95,VALID,0,VALID,95.2559,VALID,0.0169808,VALID,18.6376,VALID,37,VALID,0.613567,
2002-07-16, 01:40:00,VALID,917.938,VALID,0,VALID,95.7073,VALID,0.0169808,VALID,18.6893,VALID,27,VALID,0.457854,
2002-07-16, 01:41:00,VALID,917.936,VALID,0,VALID,95.6971,VALID,0.0849042,VALID,18.7186,VALID,355,VALID,0.241987,
2002-07-16, 01:42:00,VALID,917.94,VALID,0,VALID,95.5,VALID,0.0849042,VALID,18.7248,VALID,349,VALID,0,
2002-07-16, 01:43:00,VALID,917.924,VALID,0,VALID,95.1936,VALID,0.0679233,VALID,18.7091,VALID,349,VALID,0,
2002-07-16, 01:44:00,VALID,917.925,VALID,0,VALID,95.3398,VALID,0.0169808,VALID,18.696,VALID,350,VALID,0.0108507,
2002-07-16, 01:45:00,VALID,917.912,VALID,0,VALID,95.2267,VALID,0.0339617,VALID,18.6796,VALID,37,VALID,0.423878,
2002-07-16, 01:46:00,VALID,917.922,VALID,0,VALID,95.2623,VALID,0.0169808,VALID,18.6604,VALID,49,VALID,0.435547,
2002-07-16, 01:47:00,VALID,917.929,VALID,0,VALID,95.4441,VALID,0.0169808,VALID,18.6411,VALID,64,VALID,0.516797,
2002-07-16, 01:48:00,VALID,917.923,VALID,0,VALID,95.4543,VALID,0.0679233,VALID,18.648,VALID,87,VALID,0.536659,
2002-07-16, 01:49:00,VALID,917.911,VALID,0,VALID,95.2343,VALID,-0.0339617,VALID,18.5938,VALID,103,VALID,0.119932,
2002-07-16, 01:50:00,VALID,917.907,VALID,0,VALID,95.1656,VALID,-0.0339617,VALID,18.5327,VALID,103,VALID,0.0291016,
2002-07-16, 01:51:00,VALID,917.905,VALID,0,VALID,95.3487,VALID,-0.0849042,VALID,18.4745,VALID,103,VALID,0.0244141,
2002-07-16, 01:52:00,VALID,917.901,VALID,0,VALID,95.6272,VALID,-0.0679233,VALID,18.4579,VALID,103,VALID,0.232897,
2002-07-16, 01:53:00,VALID,917.914,VALID,0,VALID,95.7773,VALID,-0.0679233,VALID,18.4485,VALID,126,VALID,0.504261,
2002-07-16, 01:54:00,VALID,917.923,VALID,0,VALID,96.0557,VALID,-0.0339617,VALID,18.4551,VALID,125,VALID,0.607171,
2002-07-16, 01:55:00,VALID,917.912,VALID,0,VALID,96.2032,VALID,-0.0339617,VALID,18.4515,VALID,112,VALID,0.364583,
2002-07-16, 01:56:00,VALID,917.939,VALID,0,VALID,95.823,VALID,-0.0509425,VALID,18.4293,VALID,104,VALID,0.0939453,
2002-07-16, 01:57:00,VALID,917.947,VALID,0,VALID,95.7467,VALID,-0.0509425,VALID,18.3712,VALID,104,VALID,0,
2002-07-16, 01:58:00,VALID,917.948,VALID,0,VALID,96.1791,VALID,-0.0849042,VALID,18.355,VALID,104,VALID,0,
2002-07-16, 01:59:00,VALID,917.948,VALID,0,VALID,96.4563,VALID,-0.0849042,VALID,18.4069,VALID,104,VALID,0.0105574,
2002-07-16, 02:00:00,VALID,917.924,VALID,0,VALID,96.366,VALID,-0.0849042,VALID,18.4199,VALID,104,VALID,0.138221,
2002-07-16, 02:01:00,VALID,917.912,VALID,0,VALID,96.1397,VALID,-0.0339617,VALID,18.4069,VALID,104,VALID,0.20918,
2002-07-16, 02:02:00,VALID,917.886,VALID,0,VALID,96.1778,VALID,-0.0509425,VALID,18.3776,VALID,104,VALID,0.0365854,
2002-07-16, 02:03:00,VALID,917.895,VALID,0,VALID,95.9057,VALID,-0.0339617,VALID,18.3423,VALID,104,VALID,0,
2002-07-16, 02:04:00,VALID,917.882,VALID,0,VALID,96.0748,VALID,0.0509425,VALID,18.3017,VALID,104,VALID,0,
2002-07-16, 02:05:00,VALID,917.855,VALID,0,VALID,96.5835,VALID,0.0849042,VALID,18.3013,VALID,104,VALID,0.229539,
2002-07-16, 02:06:00,VALID,917.855,VALID,0,VALID,96.8085,VALID,0.101885,VALID,18.3437,VALID,104,VALID,0.196057,
2002-07-16, 02:07:00,VALID,917.837,VALID,0,VALID,96.8073,VALID,0.101885,VALID,18.379,VALID,104,VALID,0.145904,
2002-07-16, 02:08:00,VALID,917.858,VALID,0,VALID,96.8314,VALID,0.0849042,VALID,18.3956,VALID,104,VALID,0.138672,
2002-07-16, 02:09:00,VALID,917.86,VALID,0,VALID,96.7373,VALID,0.101885,VALID,18.4088,VALID,104,VALID,0,
2002-07-16, 02:10:00,VALID,917.87,VALID,0,VALID,96.2172,VALID,0.0849042,VALID,18.3472,VALID,104,VALID,0.0130208,
2002-07-16, 02:11:00,VALID,917.88,VALID,0,VALID,95.1147,VALID,0.101885,VALID,18.2083,VALID,55,VALID,0.562054,
2002-07-16, 02:12:00,VALID,917.873,VALID,0,VALID,94.6226,VALID,0.0679233,VALID,17.9821,VALID,40,VALID,0.859375,
2002-07-16, 02:13:00,VALID,917.876,VALID,0,VALID,95.6208,VALID,0.101885,VALID,17.9051,VALID,27,VALID,1.02673,
2002-07-16, 02:14:00,VALID,917.869,VALID,0,VALID,97.2472,VALID,0.101885,VALID,18.0437,VALID,29,VALID,0.900493,
2002-07-16, 02:15:00,VALID,917.852,VALID,0,VALID,97.4914,VALID,0.0849042,VALID,18.1435,VALID,36,VALID,0.788035,
2002-07-16, 02:16:00,VALID,917.847,VALID,0,VALID,97.6491,VALID,0.0849042,VALID,18.218,VALID,37,VALID,0.563734,
2002-07-16, 02:17:00,VALID,917.853,VALID,0,VALID,97.6058,VALID,0.101885,VALID,18.2858,VALID,53,VALID,0.323828,
2002-07-16, 02:18:00,VALID,917.871,VALID,0,VALID,97.0196,VALID,0.0509425,VALID,18.2928,VALID,57,VALID,0.091682,
2002-07-16, 02:19:00,VALID,917.87,VALID,0,VALID,96.7475,VALID,-0.0339617,VALID,18.2355,VALID,89,VALID,0.346554,
2002-07-16, 02:20:00,VALID,917.88,VALID,0,VALID,96.4805,VALID,-0.0169808,VALID,18.1836,VALID,102,VALID,0.436498,
2002-07-16, 02:21:00,VALID,917.887,VALID,0,VALID,96.5479,VALID,-0.0339617,VALID,18.1352,VALID,116,VALID,0.626439,
2002-07-16, 02:22:00,VALID,917.876,VALID,0,VALID,97.0018,VALID,-0.0339617,VALID,18.161,VALID,117,VALID,0.628405,
2002-07-16, 02:23:00,VALID,917.843,VALID,0,VALID,96.7437,VALID,-0.0509425,VALID,18.1647,VALID,129,VALID,0.379729,
2002-07-16, 02:24:00,VALID,917.835,VALID,0,VALID,96.6394,VALID,-0.0339617,VALID,18.1417,VALID,143,VALID,0.0703125,
2002-07-16, 02:25:00,VALID,917.828,VALID,0,VALID,96.6292,VALID,0,VALID,18.1158,VALID,140,VALID,0.0754573,
2002-07-16, 02:26:00,VALID,917.834,VALID,0,VALID,96.7348,VALID,-0.0509425,VALID,18.1198,VALID,122,VALID,0.329127,
2002-07-16, 02:27:00,VALID,917.845,VALID,0,VALID,96.9192,VALID,-0.0339617,VALID,18.1322,VALID,108,VALID,0.307445,
2002-07-16, 02:28:00,VALID,917.826,VALID,0,VALID,96.8657,VALID,-0.0169808,VALID,18.1454,VALID,108,VALID,0.219336,
2002-07-16, 02:29:00,VALID,917.809,VALID,0,VALID,96.9217,VALID,0,VALID,18.1516,VALID,108,VALID,0.313978,
2002-07-16, 02:30:00,VALID,917.796,VALID,0,VALID,96.6343,VALID,0,VALID,18.1221,VALID,109,VALID,0.239258,
2002-07-16, 02:31:00,VALID,917.794,VALID,0,VALID,96.7144,VALID,0,VALID,18.1096,VALID,131,VALID,0.380962,
2002-07-16, 02:32:00,VALID,917.769,VALID,0,VALID,97.0222,VALID,0,VALID,18.1126,VALID,141,VALID,0.486471,
2002-07-16, 02:33:00,VALID,917.754,VALID,0,VALID,97.2549,VALID,-0.0339617,VALID,18.1484,VALID,148,VALID,0.627956,
2002-07-16, 02:34:00,VALID,917.726,VALID,0,VALID,97.3731,VALID,-0.0339617,VALID,18.197,VALID,148,VALID,0.606571,
2002-07-16, 02:35:00,VALID,917.713,VALID,0,VALID,97.3884,VALID,-0.0339617,VALID,18.2289,VALID,148,VALID,0.666349,
2002-07-16, 02:36:00,VALID,917.697,VALID,0,VALID,97.2383,VALID,-0.0169808,VALID,18.2448,VALID,148,VALID,0.509252,
2002-07-16, 02:37:00,VALID,917.683,VALID,0,VALID,97.1735,VALID,-0.0849042,VALID,18.2418,VALID,143,VALID,0.577724,
2002-07-16, 02:38:00,VALID,917.658,VALID,0,VALID,97.3223,VALID,-0.0509425,VALID,18.2844,VALID,136,VALID,0.596955,
2002-07-16, 02:39:00,VALID,917.638,VALID,0,VALID,97.3172,VALID,-0.0849042,VALID,18.3001,VALID,136,VALID,0.562901,
2002-07-16, 02:40:00,VALID,917.62,VALID,0,VALID,97.3896,VALID,-0.0169808,VALID,18.3193,VALID,135,VALID,0.504883,
2002-07-16, 02:41:00,VALID,917.599,VALID,0,VALID,97.3833,VALID,-0.0339617,VALID,18.358,VALID,128,VALID,0.398633,
2002-07-16, 02:42:00,VALID,917.582,VALID,0,VALID,97.1824,VALID,-0.0509425,VALID,18.3645,VALID,127,VALID,0.205602,
2002-07-16, 02:43:00,VALID,917.567,VALID,0,VALID,96.8047,VALID,-0.0679233,VALID,18.3262,VALID,115,VALID,0.321205,
2002-07-16, 02:44:00,VALID,917.568,VALID,0,VALID,96.6992,VALID,-0.0849042,VALID,18.2812,VALID,100,VALID,0.474451,
2002-07-16, 02:45:00,VALID,917.553,VALID,0,VALID,96.8772,VALID,-0.0679233,VALID,18.2877,VALID,85,VALID,0.724029,
2002-07-16, 02:46:00,VALID,917.547,VALID,0,VALID,97.2828,VALID,-0.0339617,VALID,18.313,VALID,80,VALID,0.708404,
2002-07-16, 02:47:00,VALID,917.548,VALID,0,VALID,97.1735,VALID,-0.0339617,VALID,18.3518,VALID,74,VALID,0.523628,
2002-07-16, 02:48:00,VALID,917.565,VALID,0,VALID,97.0807,VALID,-0.0339617,VALID,18.3712,VALID,74,VALID,0.233347,
2002-07-16, 02:49:00,VALID,917.573,VALID,0,VALID,97.1124,VALID,-0.0849042,VALID,18.3841,VALID,74,VALID,0.348958,
2002-07-16, 02:50:00,VALID,917.568,VALID,0,VALID,97.2599,VALID,-0.0679233,VALID,18.4328,VALID,74,VALID,0.255208,
2002-07-16, 02:51:00,VALID,917.565,VALID,0,VALID,97.1442,VALID,-0.0169808,VALID,18.4651,VALID,74,VALID,0.0982422,
2002-07-16, 02:52:00,VALID,917.545,VALID,0,VALID,97.0069,VALID,-0.0679233,VALID,18.4681,VALID,74,VALID,0.0842014,
2002-07-16, 02:53:00,VALID,917.525,VALID,0,VALID,97.0031,VALID,-0.0339617,VALID,18.4874,VALID,74,VALID,0.214944,
2002-07-16, 02:54:00,VALID,917.504,VALID,0,VALID,96.7043,VALID,0,VALID,18.4678,VALID,71,VALID,0.278711,
2002-07-16, 02:55:00,VALID,917.5,VALID,0,VALID,96.3686,VALID,-0.0509425,VALID,18.3839,VALID,66,VALID,0.487109,
2002-07-16, 02:56:00,VALID,917.501,VALID,0,VALID,96.8823,VALID,-0.0169808,VALID,18.4097,VALID,103,VALID,0.493389,
2002-07-16, 02:57:00,VALID,917.499,VALID,0,VALID,96.9128,VALID,-0.0339617,VALID,18.4487,VALID,127,VALID,0.168074,
2002-07-16, 02:58:00,VALID,917.489,VALID,0,VALID,96.6941,VALID,-0.0679233,VALID,18.4452,VALID,127,VALID,0,
2002-07-16, 02:59:00,VALID,917.497,VALID,0,VALID,96.5631,VALID,-0.0169808,VALID,18.4224,VALID,127,VALID,0.00117188,
2002-07-16, 03:00:00,VALID,917.479,VALID,0,VALID,96.7462,VALID,-0.0339617,VALID,18.4224,VALID,127,VALID,0.0884713,
2002-07-16, 03:01:00,VALID,917.469,VALID,0,VALID,96.9192,VALID,-0.0679233,VALID,18.4485,VALID,145,VALID,0.631866,
2002-07-16, 03:02:00,VALID,917.448,VALID,0,VALID,97.0934,VALID,-0.0169808,VALID,18.4738,VALID,152,VALID,0.773638,
2002-07-16, 03:03:00,VALID,917.425,VALID,0,VALID,97.1468,VALID,-0.0339617,VALID,18.5098,VALID,141,VALID,0.738782,
2002-07-16, 03:04:00,VALID,917.414,VALID,0,VALID,97.1697,VALID,-0.0509425,VALID,18.5165,VALID,126,VALID,0.721484,
2002-07-16, 03:05:00,VALID,917.387,VALID,0,VALID,97.2218,VALID,-0.0679233,VALID,18.526,VALID,121,VALID,0.860978,
2002-07-16, 03:06:00,VALID,917.386,VALID,0,VALID,97.3299,VALID,-0.0509425,VALID,18.5327,VALID,112,VALID,0.758765,
2002-07-16, 03:07:00,VALID,917.386,VALID,0,VALID,97.3604,VALID,-0.0339617,VALID,18.5327,VALID,113,VALID,0.635557,
2002-07-16, 03:08:00,VALID,917.396,VALID,0,VALID,97.3833,VALID,-0.0339617,VALID,18.5421,VALID,114,VALID,0.113982,
2002-07-16, 03:09:00,VALID,917.415,VALID,0,VALID,97.3871,VALID,-0.0339617,VALID,18.5453,VALID,114,VALID,0,
2002-07-16, 03:10:00,VALID,917.426,VALID,0,VALID,97.3324,VALID,-0.0169808,VALID,18.5423,VALID,114,VALID,0,
2002-07-16, 03:11:00,VALID,917.426,VALID,0,VALID,97.3388,VALID,-0.0849042,VALID,18.5354,VALID,114,VALID,0.217607,
2002-07-16, 03:12:00,VALID,917.408,VALID,0,VALID,97.4189,VALID,0,VALID,18.5613,VALID,129,VALID,0.42272,
2002-07-16, 03:13:00,VALID,917.41,VALID,0,VALID,97.3629,VALID,-0.0339617,VALID,18.5905,VALID,132,VALID,0.228423,
2002-07-16, 03:14:00,VALID,917.393,VALID,0,VALID,97.2943,VALID,-0.0169808,VALID,18.597,VALID,132,VALID,0,
2002-07-16, 03:15:00,VALID,917.384,VALID,0,VALID,97.307,VALID,-0.0509425,VALID,18.6132,VALID,132,VALID,0,
2002-07-16, 03:16:00,VALID,917.382,VALID,0,VALID,97.0743,VALID,-0.0169808,VALID,18.6265,VALID,79,VALID,0.392969,
2002-07-16, 03:17:00,VALID,917.383,VALID,0,VALID,96.7246,VALID,-0.0339617,VALID,18.5809,VALID,45,VALID,0.596652,
2002-07-16, 03:18:00,VALID,917.365,VALID,0,VALID,96.689,VALID,-0.0339617,VALID,18.5414,VALID,48,VALID,0.825738,
2002-07-16, 03:19:00,VALID,917.334,VALID,0,VALID,96.8238,VALID,-0.0339617,VALID,18.5389,VALID,53,VALID,0.966071,
2002-07-16, 03:20:00,VALID,917.318,VALID,0,VALID,96.8123,VALID,-0.0169808,VALID,18.5091,VALID,54,VALID,0.854646,
2002-07-16, 03:21:00,VALID,917.312,VALID,0,VALID,97.0539,VALID,-0.0169808,VALID,18.5193,VALID,67,VALID,0.844984,
2002-07-16, 03:22:00,VALID,917.313,VALID,0,VALID,97.3731,VALID,-0.0339617,VALID,18.5935,VALID,81,VALID,0.925987,
2002-07-16, 03:23:00,VALID,917.321,VALID,0,VALID,97.1112,VALID,-0.0339617,VALID,18.6711,VALID,75,VALID,0.820929,
2002-07-16, 03:24:00,VALID,917.309,VALID,0,VALID,96.7767,VALID,-0.0339617,VALID,18.7195,VALID,71,VALID,0.731086,
2002-07-16, 03:25:00,VALID,917.297,VALID,0,VALID,96.5326,VALID,-0.0679233,VALID,18.7391,VALID,66,VALID,1.17422,
2002-07-16, 03:26:00,VALID,917.276,VALID,0,VALID,96.5008,VALID,-0.0509425,VALID,18.8065,VALID,65,VALID,1.21921,
2002-07-16, 03:27:00,VALID,917.251,VALID,0,VALID,95.8459,VALID,0,VALID,18.9168,VALID,65,VALID,1.14764,
2002-07-16, 03:28:00,VALID,917.22,VALID,0,VALID,95.1758,VALID,-0.0169808,VALID,18.9906,VALID,74,VALID,1.20633,
2002-07-16, 03:29:00,VALID,917.198,VALID,0,VALID,94.8325,VALID,-0.0169808,VALID,19.0293,VALID,84,VALID,1.36965,
2002-07-16, 03:30:00,VALID,917.183,VALID,0,VALID,94.6303,VALID,-0.0169808,VALID,19.0611,VALID,91,VALID,1.08934,
2002-07-16, 03:31:00,VALID,917.169,VALID,0,VALID,94.479,VALID,0,VALID,19.0842,VALID,110,VALID,0.900082,